[Date Prev][Date Next][Thread Prev][Thread Next] - [Date Index][Thread Index][Author Index]
2 Line ISS Keps 3-17
- Subject: [sarex] 2 Line ISS Keps 3-17
- From: "Dave Larsen PhD" <doc@xxxxxxxxxxx>
- Date: Sun, 17 Mar 2002 01:46:59 -0800
ISS
1 25544U 98067A 02076.17450479 .00054931 00000-0 72778-3 0 1956
2 25544 51.6375 155.2008 0004006 276.2185 169.9018 15.57727319189684
----
Via the sarex mailing list at AMSAT.ORG courtesy of AMSAT-NA.
To unsubscribe, send "unsubscribe sarex" to Majordomo@amsat.org
AMSAT Home